This demonstration page uses our WeatherBlox Daily Observations layout. Learn more.

Left ArrowRight Arrow

Hourly Observations for November 10, 2016

Temp ( °F °C ) Dew Point ( °F °C ) Humidity (%) Winds ( mph kmh ) Pressure ( in mb ) Visibility ( mi km ) Precip ( " mm )
12:53 am 00:53 Cloudy 53 11.7 50 10 89 89 ESE 3 6 30.33 1027 10 16 0.00 0.00
1:20 am 01:20 Cloudy 54 12 52 11 94 94 Calm 30.33 1027 7 11 0.00 0.00
1:24 am 01:24 Cloudy with Mist and Fog 54 12 52 11 94 94 Calm 30.33 1027 6 10 0.00 0.00
1:40 am 01:40 Cloudy with Mist and Fog 54 12 52 11 94 94 ENE 3 6 30.33 1027 6 10 0.00 0.00
1:50 am 01:50 Cloudy 54 12 52 11 94 94 NNE 5 7 30.33 1027 10 16 0.00 0.00
1:53 am 01:53 Cloudy 52 11.1 51 10.6 97 97 NNE 5 7 30.32 1027 10 16 0.00 0.00
2:53 am 02:53 Cloudy 53 11.7 51 10.6 93 93 Calm 30.30 1026 10 16 0.00 0.00
3:53 am 03:53 Cloudy 53 11.7 51 10.6 93 93 NE 3 6 30.30 1026 10 16 0.00 0.00
4:53 am 04:53 Cloudy 53 11.7 51 10.6 93 93 Calm 30.29 1026 9 14 0.00 0.00
5:29 am 05:29 Cloudy 53 11.7 51 10.6 93 93 Calm 30.33 1027 9 14 0.00 0.00
5:42 am 05:42 Cloudy with Mist and Fog 54 12 52 11 94 94 Calm 30.33 1027 4 6 0.00 0.00
5:53 am 05:53 Cloudy with Mist and Fog 52 11.1 52 11.1 100 100 Calm 30.29 1026 4 6 0.00 0.00
6:03 am 06:03 Cloudy with Mist and Fog 54 12 52 11 94 94 Calm 30.30 1026 6 10 0.00 0.00
6:13 am 06:13 Cloudy with Mist and Fog 52 11.1 52 11.1 100 100 ENE 3 6 30.33 1027 3 4 0.00 0.00
6:21 am 06:21 Cloudy with Mist and Fog 52 11.1 52 11.1 100 100 NE 3 6 30.30 1026 3 5 0.00 0.00
6:53 am 06:53 Cloudy with Mist and Fog 52 11.1 52 11.1 100 100 Calm 30.30 1026 5 8 0.00 0.00
7:11 am 07:11 Cloudy with Mist and Fog 52 11.1 52 11.1 100 100 Calm 30.33 1027 6 10 0.00 0.00
7:26 am 07:26 Cloudy 52 11 52 11 100 100 Calm 30.33 1027 8 13 0.00 0.00
7:53 am 07:53 Cloudy 53 11.7 52 11.1 96 96 SSE 3 6 30.32 1027 7 11 0.00 0.00
8:28 am 08:28 Cloudy 54 12 52 11 94 94 SSE 6 9 30.36 1028 10 16 0.00 0.00
8:41 am 08:41 Cloudy with Mist and Fog 53 11.7 52 11.1 96 96 SSE 5 7 30.36 1028 4 6 0.00 0.00
8:53 am 08:53 Cloudy 53 11.7 52 11.1 96 96 S 3 6 30.33 1027 7 11 0.00 0.00
9:25 am 09:25 Cloudy 54 12.2 52 11.1 93 93 SE 6 9 30.36 1028 10 16 0.00 0.00
9:41 am 09:41 Cloudy 55 12.8 52 11.1 90 90 SSE 3 6 30.36 1028 10 16 0.00 0.00
9:53 am 09:53 Cloudy 55 12.8 52 11.1 90 90 SE 5 7 30.34 1027 10 16 0.00 0.00
10:15 am 10:15 Mostly Cloudy 55 12.8 51 10.6 87 87 Calm 30.36 1028 10 16 0.00 0.00
10:50 am 10:50 Cloudy 55 13 50 10 82 82 Calm 30.36 1028 10 16 0.00 0.00
10:53 am 10:53 Cloudy 57 13.9 51 10.6 81 81 Calm 30.33 1027 10 16 0.00 0.00
11:32 am 11:32 Cloudy 57 14 50 10 77 77 Calm 30.30 1026 10 16 0.00 0.00
11:53 am 11:53 Cloudy 57 13.9 51 10.6 81 81 Calm 30.31 1026 10 16 0.00 0.00
12:03 pm 12:03 Cloudy 57 14 52 11 82 82 Calm 30.30 1026 10 16 0.00 0.00
12:28 pm 12:28 Cloudy 59 15 52 11 77 77 Calm 30.30 1026 10 16 0.00 0.00
12:53 pm 12:53 Cloudy 58 14.4 51 10.6 78 78 Calm 30.27 1025 10 16 0.00 0.00
1:53 pm 13:53 Cloudy 58 14.4 51 10.6 78 78 SSW 5 7 30.26 1025 10 16 0.00 0.00
2:41 pm 14:41 Cloudy 59 15 51 10.6 75 75 Calm 30.24 1024 10 16 0.00 0.00
2:53 pm 14:53 Cloudy 59 15 51 10.6 75 75 SE 5 7 30.24 1024 10 16 0.00 0.00
3:53 pm 15:53 Cloudy 59 15 50 10 72 72 Calm 30.23 1024 10 16 0.00 0.00
4:53 pm 16:53 Cloudy 59 15 51 10.6 75 75 SSE 6 9 30.23 1024 10 16 0.00 0.00
5:08 pm 17:08 Cloudy 59 15 52 11 77 77 SE 5 7 30.24 1024 10 16 0.00 0.00
5:53 pm 17:53 Cloudy 58 14.4 51 10.6 78 78 E 7 11 30.24 1024 10 16 0.00 0.00
6:53 pm 18:53 Mostly Cloudy 56 13.3 51 10.6 84 84 WSW 3 6 30.25 1024 10 16 0.00 0.00
7:53 pm 19:53 Clear 53 11.7 51 10.6 93 93 S 5 7 30.26 1025 10 16 0.00 0.00
8:53 pm 20:53 Clear 52 11.1 50 10 93 93 SSE 3 6 30.27 1025 10 16 0.00 0.00
9:53 pm 21:53 Clear 51 10.6 50 10 96 96 SE 6 9 30.27 1025 10 16 0.00 0.00
10:53 pm 22:53 Clear with Mist and Fog 50 10 50 10 100 100 SSE 3 6 30.27 1025 6 10 0.00 0.00
11:15 pm 23:15 Partly Cloudy with Mist and Fog 50 10 50 10 100 100 SSE 3 6 30.33 1027 6 10 0.00 0.00
11:25 pm 23:25 Mostly Cloudy with Mist and Fog 50 10 50 10 100 100 SSE 3 6 30.33 1027 5 8 0.00 0.00
11:43 pm 23:43 Cloudy with Mist and Fog 51 10.6 51 10.6 100 100 SSE 7 11 30.33 1027 2 2 0.00 0.00
11:49 pm 23:49 Cloudy with Fog 52 11 52 11 100 100 SSE 7 11 30.30 1026 0 0 0.00 0.00
11:53 pm 23:53 Mostly Cloudy with Fog 52 11.1 52 11.1 100 100 SSE 8 13 30.26 1025 0 0 0.00 0.00

Powered by AerisWeather